N12KH 1B9-1B9

Flight info

Callsign N12KH
Flight time N/A
Altitude VFR
Route
Aircraft ULAC/L-DOV/C

Departure

Time 2026-04-16 21:11
Airport Mansfield Municipal Airport (1B9)

Arrival

Time N/A
Airport Mansfield Municipal Airport (1B9)
Time Latitude Longitude Altitude Speed Heading
2026-04-16 21:06 42.12238 -71.06543 573 ft 60 kts 354°
2026-04-16 21:06 42.12639 -71.06618 540 ft 56 kts 355°
2026-04-16 21:06 42.13026 -71.06700 520 ft 55 kts 354°
2026-04-16 21:07 42.13400 -71.06797 512 ft 54 kts 351°
2026-04-16 21:07 42.13782 -71.06854 491 ft 54 kts
2026-04-16 21:07 42.14160 -71.06905 476 ft 56 kts 353°
2026-04-16 21:07 42.14530 -71.07001 469 ft 54 kts 355°
2026-04-16 21:08 42.14908 -71.07038 459 ft 51 kts
2026-04-16 21:08 42.15268 -71.07031 472 ft 52 kts 358°
2026-04-16 21:08 42.15635 -71.07114 470 ft 53 kts 356°
2026-04-16 21:08 42.16001 -71.07169 472 ft 54 kts
2026-04-16 21:09 42.16383 -71.07166 454 ft 54 kts
2026-04-16 21:09 42.16756 -71.07170 441 ft 54 kts
2026-04-16 21:09 42.17132 -71.07188 425 ft 53 kts
2026-04-16 21:09 42.17502 -71.07218 441 ft 52 kts
2026-04-16 21:10 42.17863 -71.07227 445 ft 53 kts
2026-04-16 21:10 42.18230 -71.07256 445 ft 54 kts
2026-04-16 21:10 42.18609 -71.07301 429 ft 53 kts
2026-04-16 21:10 42.18969 -71.07328 452 ft 52 kts 358°
2026-04-16 21:11 42.19336 -71.07375 582 ft 53 kts 356°
2026-04-16 21:11 42.19721 -71.07449 681 ft 57 kts 353°
2026-04-16 21:11 42.20123 -71.07552 757 ft 60 kts 351°
2026-04-16 21:11 42.20542 -71.07667 817 ft 62 kts 352°
2026-04-16 21:12 42.20973 -71.07756 832 ft 64 kts 355°
2026-04-16 21:12 42.21426 -71.07803 738 ft 68 kts
2026-04-16 21:12 42.21894 -71.07849 599 ft 66 kts
2026-04-16 21:12 42.22332 -71.07885 545 ft 60 kts
2026-04-16 21:13 42.22767 -71.07883 487 ft 64 kts
2026-04-16 21:13 42.23203 -71.07922 455 ft 60 kts
2026-04-16 21:13 42.23623 -71.07980 445 ft 59 kts
2026-04-16 21:13 42.24039 -71.08009 447 ft 58 kts
2026-04-16 21:14 42.24453 -71.08015 432 ft 58 kts
2026-04-16 21:14 42.24585 -71.08003 443 ft 57 kts
2026-04-16 21:14 42.25286 -71.07912 453 ft 59 kts 18°
2026-04-16 21:14 42.25687 -71.07788 446 ft 58 kts 20°
2026-04-16 21:15 42.26091 -71.07686 451 ft 58 kts
2026-04-16 21:15 42.26490 -71.07744 480 ft 59 kts
2026-04-16 21:15 42.26902 -71.07806 498 ft 60 kts 360°
2026-04-16 21:15 42.27311 -71.07871 528 ft 59 kts 354°
2026-04-16 21:16 42.27725 -71.07942 540 ft 60 kts
2026-04-16 21:16 42.28157 -71.07967 515 ft 62 kts
2026-04-16 21:16 42.28592 -71.07955 494 ft 61 kts 11°
2026-04-16 21:16 42.29010 -71.07886 490 ft 62 kts
2026-04-16 21:17 42.29437 -71.07824 468 ft 62 kts 10°
2026-04-16 21:17 42.29865 -71.07769 475 ft 59 kts 12°
2026-04-16 21:17 42.30279 -71.07757 498 ft 61 kts 358°
2026-04-16 21:17 42.30700 -71.07677 471 ft 60 kts 15°
2026-04-16 21:18 42.31073 -71.07918 480 ft 59 kts 319°
2026-04-16 21:18 42.31410 -71.08284 418 ft 64 kts 329°
2026-04-16 21:18 42.31788 -71.08575 444 ft 61 kts 338°
2026-04-16 21:18 42.32176 -71.08777 472 ft 60 kts 346°
2026-04-16 21:19 42.32583 -71.08907 491 ft 60 kts
2026-04-16 21:19 42.32980 -71.08775 507 ft 59 kts
2026-04-16 21:19 42.33340 -71.09083 486 ft 64 kts 310°
2026-04-16 21:19 42.33612 -71.09549 474 ft 62 kts 326°
2026-04-16 21:20 42.33950 -71.09926 493 ft 61 kts 324°
2026-04-16 21:20 42.34332 -71.10161 508 ft 60 kts
2026-04-16 21:20 42.34628 -71.09867 470 ft 58 kts 86°
2026-04-16 21:20 42.34371 -71.09542 428 ft 59 kts 183°
2026-04-16 21:21 42.34160 -71.09943 460 ft 62 kts 290°
2026-04-16 21:21 42.34493 -71.10013 513 ft 55 kts 28°
2026-04-16 21:21 42.34849 -71.09753 517 ft 58 kts 35°
2026-04-16 21:21 42.35164 -71.09388 451 ft 60 kts 49°
2026-04-16 21:22 42.35384 -71.08946 478 ft 52 kts 66°
2026-04-16 21:22 42.35514 -71.08473 488 ft 55 kts 69°
2026-04-16 21:22 42.35632 -71.07984 494 ft 55 kts 60°
2026-04-16 21:22 42.35958 -71.07674 488 ft 58 kts 27°
2026-04-16 21:23 42.36317 -71.07373 402 ft 61 kts 39°
2026-04-16 21:23 42.36646 -71.07014 336 ft 58 kts 58°
2026-04-16 21:23 42.36768 -71.06531 358 ft 51 kts 78°
2026-04-16 21:23 42.36861 -71.06072 402 ft 54 kts 73°
2026-04-16 21:24 42.36904 -71.05576 403 ft 53 kts 101°
2026-04-16 21:24 42.36742 -71.05127 380 ft 57 kts 146°
2026-04-16 21:24 42.36374 -71.04943 395 ft 55 kts 145°
2026-04-16 21:24 42.36310 -71.04497 451 ft 50 kts 63°
2026-04-16 21:25 42.36556 -71.04108 463 ft 55 kts 49°
2026-04-16 21:25 42.36832 -71.03773 537 ft 52 kts 46°
2026-04-16 21:25 42.37156 -71.03487 544 ft 59 kts 26°
2026-04-16 21:25 42.37539 -71.03262 528 ft 59 kts 27°
2026-04-16 21:26 42.37925 -71.03065 524 ft 58 kts 14°
2026-04-16 21:26 42.38325 -71.03163 578 ft 59 kts 343°
2026-04-16 21:26 42.38673 -71.03514 573 ft 62 kts 313°
2026-04-16 21:26 42.38865 -71.04018 583 ft 62 kts 258°
2026-04-16 21:27 42.38736 -71.04539 631 ft 59 kts 227°
2026-04-16 21:27 42.38377 -71.04752 638 ft 56 kts 199°
2026-04-16 21:27 42.38336 -71.05254 553 ft 67 kts 320°
2026-04-16 21:27 42.38764 -71.05254 467 ft 61 kts 47°
2026-04-16 21:28 42.38782 -71.04747 469 ft 53 kts 111°
2026-04-16 21:28 42.38464 -71.04505 459 ft 54 kts 163°
2026-04-16 21:28 42.38112 -71.04330 490 ft 54 kts 155°
2026-04-16 21:28 42.37760 -71.04134 502 ft 56 kts 158°
2026-04-16 21:29 42.37462 -71.03822 507 ft 52 kts 128°
2026-04-16 21:29 42.37260 -71.03400 525 ft 52 kts 118°
2026-04-16 21:29 42.37093 -71.02951 520 ft 55 kts 117°
2026-04-16 21:29 42.36917 -71.02482 512 ft 54 kts 118°
2026-04-16 21:30 42.36758 -71.02021 541 ft 53 kts 115°
2026-04-16 21:30 42.36617 -71.01534 500 ft 60 kts 111°
2026-04-16 21:30 42.36485 -71.01021 451 ft 58 kts 110°
2026-04-16 21:30 42.36399 -71.00487 400 ft 55 kts 100°
2026-04-16 21:31 42.36362 -70.99996 418 ft 53 kts 87°
2026-04-16 21:31 42.36425 -70.99513 428 ft 54 kts 56°
2026-04-16 21:31 42.36756 -70.99289 470 ft 56 kts 21°
2026-04-16 21:31 42.37088 -70.99034 491 ft 54 kts 35°
2026-04-16 21:32 42.37417 -70.98777 526 ft 54 kts 46°
2026-04-16 21:32 42.37699 -70.98460 574 ft 56 kts 36°
2026-04-16 21:32 42.38042 -70.98182 576 ft 57 kts 42°
2026-04-16 21:32 42.38275 -70.97805 679 ft 47 kts 60°
2026-04-16 21:33 42.38520 -70.97452 738 ft 56 kts 49°
2026-04-16 21:33 42.38799 -70.97108 817 ft 51 kts 54°
2026-04-16 21:33 42.39073 -70.96774 880 ft 53 kts 51°
2026-04-16 21:33 42.39357 -70.96441 957 ft 54 kts 43°
2026-04-16 21:34 42.39621 -70.96060 1011 ft 57 kts 62°
2026-04-16 21:34 42.39861 -70.95634 1048 ft 60 kts 58°
2026-04-16 21:34 42.40127 -70.95173 1047 ft 61 kts 54°
2026-04-16 21:34 42.40406 -70.94721 1032 ft 63 kts 53°
2026-04-16 21:35 42.40734 -70.94325 1024 ft 63 kts 50°
2026-04-16 21:35 42.41020 -70.93903 1038 ft 59 kts 74°
2026-04-16 21:35 42.41356 -70.93713 1078 ft 60 kts 328°
2026-04-16 21:35 42.41394 -70.94179 1053 ft 53 kts 226°
2026-04-16 21:36 42.41074 -70.94394 1061 ft 50 kts 198°
2026-04-16 21:36 42.40758 -70.94637 1056 ft 51 kts 212°
2026-04-16 21:36 42.40494 -70.94976 1060 ft 53 kts 218°
2026-04-16 21:36 42.40211 -70.95283 1061 ft 52 kts 217°
2026-04-16 21:37 42.39921 -70.95575 1049 ft 52 kts 209°
2026-04-16 21:37 42.39644 -70.95913 1023 ft 54 kts 223°
2026-04-16 21:37 42.39384 -70.96280 1013 ft 52 kts 221°
2026-04-16 21:37 42.39104 -70.96629 945 ft 59 kts 230°
2026-04-16 21:38 42.38831 -70.97063 836 ft 58 kts 223°
2026-04-16 21:38 42.38532 -70.97422 762 ft 58 kts 214°
2026-04-16 21:38 42.38253 -70.97819 680 ft 58 kts 226°
2026-04-16 21:38 42.37969 -70.98214 620 ft 57 kts 218°
2026-04-16 21:39 42.37711 -70.98624 484 ft 55 kts 218°
2026-04-16 21:39 42.37380 -70.98973 450 ft 63 kts 223°
2026-04-16 21:39 42.37004 -70.99127 450 ft 56 kts 159°
2026-04-16 21:39 42.36782 -70.99387 392 ft 63 kts 306°
2026-04-16 21:40 42.37085 -70.99234 433 ft 52 kts 62°
2026-04-16 21:40 42.37254 -70.98779 499 ft 53 kts 73°
2026-04-16 21:40 42.37404 -70.98333 601 ft 52 kts 69°
2026-04-16 21:40 42.37571 -70.97870 653 ft 58 kts 72°
2026-04-16 21:41 42.37769 -70.97400 699 ft 59 kts 60°
2026-04-16 21:41 42.37997 -70.96936 760 ft 58 kts 63°
2026-04-16 21:41 42.38274 -70.96529 839 ft 56 kts 62°
2026-04-16 21:41 42.38598 -70.96397 896 ft 64 kts 314°
2026-04-16 21:42 42.38613 -70.96888 964 ft 52 kts 223°
2026-04-16 21:42 42.38378 -70.97274 952 ft 62 kts 264°
2026-04-16 21:42 42.38493 -70.97871 904 ft 62 kts 278°
2026-04-16 21:42 42.38752 -70.98365 844 ft 66 kts 317°
2026-04-16 21:43 42.38977 -70.98865 853 ft 63 kts 277°
2026-04-16 21:43 42.38901 -70.99425 828 ft 62 kts 242°
2026-04-16 21:43 42.38640 -70.99854 787 ft 64 kts 237°
2026-04-16 21:43 42.38445 -71.00393 688 ft 58 kts 233°
2026-04-16 21:44 42.38213 -71.00900 498 ft 66 kts 232°
2026-04-16 21:44 42.37950 -71.01386 266 ft 56 kts 227°
2026-04-16 21:44 42.37743 -71.01782 155 ft 49 kts 228°
2026-04-16 21:44 42.37461 -71.01961 63 ft 43 kts 166°
2026-04-16 21:45 42.37244 -71.01762 12 ft 37 kts 128°
2026-04-16 21:45 42.37126 -71.01596 8 ft 13 kts 133°
2026-04-16 21:45 42.37110 -71.01574 7 ft 0 kts 135°
2026-04-16 21:47 42.37106 -71.01569 7 ft 1 kts 140°
2026-04-16 21:47 42.37082 -71.01544 7 ft 10 kts 156°
2026-04-16 21:48 42.37046 -71.01612 8 ft 13 kts 308°
2026-04-16 21:48 42.37104 -71.01702 8 ft 11 kts 305°
2026-04-16 21:48 42.37142 -71.01786 8 ft 10 kts 307°
2026-04-16 21:48 42.37180 -71.01873 8 ft 10 kts 298°
2026-04-16 21:49 42.37223 -71.01959 8 ft 11 kts 296°